owner,sensor,date,latitude,longitude,vertical_datum,direction_of_sea_water_velocity,sea_water_speed,upward_sea_water_velocity,qcFlag 
TABS,ioos:station:wmo:42043:1,2010-02-01T00:00:00Z,28.9818,-94.9186,2.0,260.6383843,36.33387675,-99999.0,'11111222,11111222,99999999' 
TABS,ioos:station:wmo:42043:1,2010-02-01T00:30:00Z,28.9818,-94.9186,2.0,250.879543,40.72672341,-99999.0,'11111222,11111222,99999999' 
TABS,ioos:station:wmo:42043:1,2010-02-01T01:00:00Z,28.9818,-94.9186,2.0,248.6171851,43.17160641,-99999.0,'11111222,11111222,99999999' 
TABS,ioos:station:wmo:42043:1,2010-02-01T01:30:00Z,28.9818,-94.9186,2.0,248.7731333,42.01011426,-99999.0,'11111222,11111222,99999999' 
TABS,ioos:station:wmo:42043:1,2010-02-01T02:00:00Z,28.9818,-94.9186,2.0,252.3757009,43.56473918,-99999.0,'11111222,11111222,99999999' 
TABS,ioos:station:wmo:42043:1,2010-02-01T02:30:00Z,28.9818,-94.9186,2.0,250.8762537,37.63698314,-99999.0,'11111222,11111222,99999999' 
TABS,ioos:station:wmo:42043:1,2010-02-01T03:00:00Z,28.9818,-94.9186,2.0,255.5991984,38.15890067,-99999.0,'11111222,11111222,99999999' 
TABS,ioos:station:wmo:42043:1,2010-02-01T03:30:00Z,28.9818,-94.9186,2.0,256.466243,33.16074788,-99999.0,'11111222,11111222,99999999' 
TABS,ioos:station:wmo:42043:1,2010-02-01T04:00:00Z,28.9818,-94.9186,2.0,264.7789401,39.56412516,-99999.0,'11111222,11111222,99999999' 
TABS,ioos:station:wmo:42043:1,2010-02-01T04:30:00Z,28.9818,-94.9186,2.0,266.3496427,37.38583288,-99999.0,'11111222,11111222,99999999' 
TABS,ioos:station:wmo:42043:1,2010-02-01T05:00:00Z,28.9818,-94.9186,2.0,272.8795866,35.83523545,-99999.0,'11111222,11111222,99999999' 
TABS,ioos:station:wmo:42043:1,2010-02-01T05:30:00Z,28.9818,-94.9186,2.0,270.3105432,29.56043301,-99999.0,'11111222,11111222,99999999' 
TABS,ioos:station:wmo:42043:1,2010-02-01T06:00:00Z,28.9818,-94.9186,2.0,274.276252,30.04362162,-99999.0,'11111222,11111222,99999999' 
TABS,ioos:station:wmo:42043:1,2010-02-01T06:30:00Z,28.9818,-94.9186,2.0,268.9015154,30.26555798,-99999.0,'11111222,11111222,99999999' 
TABS,ioos:station:wmo:42043:1,2010-02-01T07:00:00Z,28.9818,-94.9186,2.0,268.1803495,29.29476574,-99999.0,'11111222,11111222,99999999' 
TABS,ioos:station:wmo:42043:1,2010-02-01T07:30:00Z,28.9818,-94.9186,2.0,264.6025447,32.00187026,-99999.0,'11111222,11111222,99999999' 
TABS,ioos:station:wmo:42043:1,2010-02-01T08:00:00Z,28.9818,-94.9186,2.0,268.0982088,34.35891733,-99999.0,'11111222,11111222,99999999' 
TABS,ioos:station:wmo:42043:1,2010-02-01T08:30:00Z,28.9818,-94.9186,2.0,264.5969901,32.39390375,-99999.0,'11111222,11111222,99999999' 
TABS,ioos:station:wmo:42043:1,2010-02-01T09:00:00Z,28.9818,-94.9186,2.0,262.9029717,32.53927627,-99999.0,'11111222,11111222,99999999' 
TABS,ioos:station:wmo:42043:1,2010-02-01T09:30:00Z,28.9818,-94.9186,2.0,261.8799952,30.86945416,-99999.0,'11111222,11111222,99999999' 
TABS,ioos:station:wmo:42043:1,2010-02-01T10:00:00Z,28.9818,-94.9186,2.0,258.1761316,39.38562428,-99999.0,'11111222,11111222,99999999' 
TABS,ioos:station:wmo:42043:1,2010-02-01T10:30:00Z,28.9818,-94.9186,2.0,257.7491096,37.51422663,-99999.0,'11111222,11111222,99999999' 
TABS,ioos:station:wmo:42043:1,2010-02-01T11:00:00Z,28.9818,-94.9186,2.0,253.3279951,35.76332199,-99999.0,'11111222,11111222,99999999' 
TABS,ioos:station:wmo:42043:1,2010-02-01T11:30:00Z,28.9818,-94.9186,2.0,245.1863538,36.71998094,-99999.0,'11111222,11111222,99999999' 
TABS,ioos:station:wmo:42043:1,2010-02-01T12:00:00Z,28.9818,-94.9186,2.0,247.8438584,39.03204965,-99999.0,'11111222,11111222,99999999' 
TABS,ioos:station:wmo:42043:1,2010-02-01T12:30:00Z,28.9818,-94.9186,2.0,244.4375541,42.41129095,-99999.0,'11111222,11111222,99999999' 
TABS,ioos:station:wmo:42043:1,2010-02-01T13:00:00Z,28.9818,-94.9186,2.0,246.5849675,42.47793309,-99999.0,'11111222,11111222,99999999' 
TABS,ioos:station:wmo:42043:1,2010-02-01T13:30:00Z,28.9818,-94.9186,2.0,250.676124,44.45432037,-99999.0,'11111222,11111222,99999999' 
TABS,ioos:station:wmo:42043:1,2010-02-01T14:00:00Z,28.9818,-94.9186,2.0,249.3742948,41.61752155,-99999.0,'11111222,11111222,99999999' 
TABS,ioos:station:wmo:42043:1,2010-02-01T14:30:00Z,28.9818,-94.9186,2.0,250.5748449,43.75031543,-99999.0,'11111222,11111222,99999999' 
TABS,ioos:station:wmo:42043:1,2010-02-01T15:00:00Z,28.9818,-94.9186,2.0,254.4414102,42.27917336,-99999.0,'11111222,11111222,99999999' 
TABS,ioos:station:wmo:42043:1,2010-02-01T15:30:00Z,28.9818,-94.9186,2.0,254.7798637,42.62502786,-99999.0,'11111222,11111222,99999999' 
TABS,ioos:station:wmo:42043:1,2010-02-01T16:00:00Z,28.9818,-94.9186,2.0,254.1287948,45.37984795,-99999.0,'11111222,11111222,99999999' 
TABS,ioos:station:wmo:42043:1,2010-02-01T16:30:00Z,28.9818,-94.9186,2.0,254.7550948,42.67150454,-99999.0,'11111222,11111222,99999999' 
TABS,ioos:station:wmo:42043:1,2010-02-01T17:00:00Z,28.9818,-94.9186,2.0,258.7711676,45.50095054,-99999.0,'11111222,11111222,99999999' 
TABS,ioos:station:wmo:42043:1,2010-02-01T17:30:00Z,28.9818,-94.9186,2.0,260.8054798,42.49595981,-99999.0,'11111222,11111222,99999999' 
TABS,ioos:station:wmo:42043:1,2010-02-01T18:00:00Z,28.9818,-94.9186,2.0,262.5477866,44.79835376,-99999.0,'11111222,11111222,99999999' 
TABS,ioos:station:wmo:42043:1,2010-02-01T18:30:00Z,28.9818,-94.9186,2.0,256.6180702,41.17796134,-99999.0,'11111222,11111222,99999999' 
TABS,ioos:station:wmo:42043:1,2010-02-01T19:00:00Z,28.9818,-94.9186,2.0,260.4044638,39.71561406,-99999.0,'11111222,11111222,99999999' 
TABS,ioos:station:wmo:42043:1,2010-02-01T19:30:00Z,28.9818,-94.9186,2.0,258.8436436,36.48949986,-99999.0,'11111222,11111222,99999999' 
TABS,ioos:station:wmo:42043:1,2010-02-01T20:00:00Z,28.9818,-94.9186,2.0,273.9649276,40.78760228,-99999.0,'11111222,11111222,99999999' 
TABS,ioos:station:wmo:42043:1,2010-02-01T20:30:00Z,28.9818,-94.9186,2.0,266.2943421,39.92345175,-99999.0,'11111222,11111222,99999999' 
TABS,ioos:station:wmo:42043:1,2010-02-01T21:00:00Z,28.9818,-94.9186,2.0,267.7026248,39.67187543,-99999.0,'11111222,11111222,99999999' 
TABS,ioos:station:wmo:42043:1,2010-02-01T21:30:00Z,28.9818,-94.9186,2.0,256.0488332,32.51921278,-99999.0,'11111222,11111222,99999999' 
TABS,ioos:station:wmo:42043:1,2010-02-01T22:00:00Z,28.9818,-94.9186,2.0,263.3350503,38.42968254,-99999.0,'11111222,11111222,99999999' 
TABS,ioos:station:wmo:42043:1,2010-02-01T22:30:00Z,28.9818,-94.9186,2.0,256.7758741,41.04843115,-99999.0,'11111222,11111222,99999999' 
TABS,ioos:station:wmo:42043:1,2010-02-01T23:00:00Z,28.9818,-94.9186,2.0,251.440408,39.36728718,-99999.0,'11111222,11111222,99999999' 
TABS,ioos:station:wmo:42043:1,2010-02-01T23:30:00Z,28.9818,-94.9186,2.0,244.6042238,42.06473107,-99999.0,'11111222,11111222,99999999' 
TABS,ioos:station:wmo:42043:1,2010-02-02T00:00:00Z,28.9818,-94.9186,2.0,235.11626,42.349451,-99999.0,'11111222,11111222,99999999' 
TABS,ioos:station:wmo:42043:1,2010-02-02T00:30:00Z,28.9818,-94.9186,2.0,233.2246868,48.29006627,-99999.0,'11111222,11111222,99999999' 
TABS,ioos:station:wmo:42043:1,2010-02-02T01:00:00Z,28.9818,-94.9186,2.0,233.9286065,52.07306117,-99999.0,'11111222,11111222,99999999' 
TABS,ioos:station:wmo:42043:1,2010-02-02T01:30:00Z,28.9818,-94.9186,2.0,225.8528699,56.98498223,-99999.0,'11111222,11111222,99999999' 
TABS,ioos:station:wmo:42043:1,2010-02-02T02:00:00Z,28.9818,-94.9186,2.0,229.1528821,55.94470931,-99999.0,'11111222,11111222,99999999' 
TABS,ioos:station:wmo:42043:1,2010-02-02T02:30:00Z,28.9818,-94.9186,2.0,233.5653296,56.82764204,-99999.0,'11111222,11111222,99999999' 
TABS,ioos:station:wmo:42043:1,2010-02-02T03:00:00Z,28.9818,-94.9186,2.0,237.2762941,58.02990005,-99999.0,'11111222,11111222,99999999' 
TABS,ioos:station:wmo:42043:1,2010-02-02T03:30:00Z,28.9818,-94.9186,2.0,234.9432975,59.08959722,-99999.0,'11111222,11111222,99999999' 
TABS,ioos:station:wmo:42043:1,2010-02-02T04:00:00Z,28.9818,-94.9186,2.0,239.6154342,53.57889883,-99999.0,'11111222,11111222,99999999' 
TABS,ioos:station:wmo:42043:1,2010-02-02T04:30:00Z,28.9818,-94.9186,2.0,240.6390434,54.74148062,-99999.0,'11111222,11111222,99999999' 
TABS,ioos:station:wmo:42043:1,2010-02-02T05:00:00Z,28.9818,-94.9186,2.0,242.443445,58.68767673,-99999.0,'11111222,11111222,99999999' 
TABS,ioos:station:wmo:42043:1,2010-02-02T05:30:00Z,28.9818,-94.9186,2.0,235.7411212,56.18834844,-99999.0,'11111222,11111222,99999999' 
TABS,ioos:station:wmo:42043:1,2010-02-02T06:00:00Z,28.9818,-94.9186,2.0,238.2892386,51.06289455,-99999.0,'11111222,11111222,99999999' 
TABS,ioos:station:wmo:42043:1,2010-02-02T06:30:00Z,28.9818,-94.9186,2.0,234.6671314,49.34976393,-99999.0,'11111222,11111222,99999999' 
TABS,ioos:station:wmo:42043:1,2010-02-02T07:00:00Z,28.9818,-94.9186,2.0,236.9854669,44.67311496,-99999.0,'11111222,11111222,99999999' 
TABS,ioos:station:wmo:42043:1,2010-02-02T07:30:00Z,28.9818,-94.9186,2.0,253.6377647,45.54447167,-99999.0,'11111222,11111222,99999999' 
TABS,ioos:station:wmo:42043:1,2010-02-02T08:00:00Z,28.9818,-94.9186,2.0,261.3028622,43.18653725,-99999.0,'11111222,11111222,99999999' 
TABS,ioos:station:wmo:42043:1,2010-02-02T08:30:00Z,28.9818,-94.9186,2.0,251.7987891,40.24348146,-99999.0,'11111222,11111222,99999999' 
TABS,ioos:station:wmo:42043:1,2010-02-02T09:00:00Z,28.9818,-94.9186,2.0,249.2303658,49.3788315,-99999.0,'11111222,11111222,99999999' 
TABS,ioos:station:wmo:42043:1,2010-02-02T09:30:00Z,28.9818,-94.9186,2.0,251.9185552,74.75134514,-99999.0,'11111222,11111222,99999999' 
TABS,ioos:station:wmo:42043:1,2010-02-02T10:00:00Z,28.9818,-94.9186,2.0,247.4908324,74.60321709,-99999.0,'11111222,11111222,99999999' 
TABS,ioos:station:wmo:42043:1,2010-02-02T10:30:00Z,28.9818,-94.9186,2.0,244.81543,75.71736129,-99999.0,'11111222,11111222,99999999' 
TABS,ioos:station:wmo:42043:1,2010-02-02T11:00:00Z,28.9818,-94.9186,2.0,242.5217624,70.7402799,-99999.0,'11111222,11111222,99999999' 
TABS,ioos:station:wmo:42043:1,2010-02-02T11:30:00Z,28.9818,-94.9186,2.0,242.7678348,69.55984043,-99999.0,'11111222,11111222,99999999' 
TABS,ioos:station:wmo:42043:1,2010-02-02T12:00:00Z,28.9818,-94.9186,2.0,239.2962203,66.43237765,-99999.0,'11111222,11111222,99999999' 
TABS,ioos:station:wmo:42043:1,2010-02-02T12:30:00Z,28.9818,-94.9186,2.0,237.5104666,75.69714724,-99999.0,'11111222,11111222,99999999' 
TABS,ioos:station:wmo:42043:1,2010-02-02T13:00:00Z,28.9818,-94.9186,2.0,238.3169053,69.83800756,-99999.0,'11111222,11111222,99999999' 
TABS,ioos:station:wmo:42043:1,2010-02-02T13:30:00Z,28.9818,-94.9186,2.0,239.7619856,65.90705349,-99999.0,'11111222,11111222,99999999' 
TABS,ioos:station:wmo:42043:1,2010-02-02T14:00:00Z,28.9818,-94.9186,2.0,239.7472565,61.19369657,-99999.0,'11111222,11111222,99999999' 
TABS,ioos:station:wmo:42043:1,2010-02-02T14:30:00Z,28.9818,-94.9186,2.0,241.820498,64.7777593,-99999.0,'11111222,11111222,99999999' 
TABS,ioos:station:wmo:42043:1,2010-02-02T15:00:00Z,28.9818,-94.9186,2.0,239.1356662,62.04656719,-99999.0,'11111222,11111222,99999999' 
TABS,ioos:station:wmo:42043:1,2010-02-02T15:30:00Z,28.9818,-94.9186,2.0,238.5573597,59.75390615,-99999.0,'11111222,11111222,99999999' 
TABS,ioos:station:wmo:42043:1,2010-02-02T16:00:00Z,28.9818,-94.9186,2.0,237.2530087,57.27223848,-99999.0,'11111222,11111222,99999999' 
TABS,ioos:station:wmo:42043:1,2010-02-02T16:30:00Z,28.9818,-94.9186,2.0,238.4450584,56.0470026,-99999.0,'11111222,11111222,99999999' 
TABS,ioos:station:wmo:42043:1,2010-02-02T17:00:00Z,28.9818,-94.9186,2.0,235.4991628,58.82629344,-99999.0,'11111222,11111222,99999999' 
TABS,ioos:station:wmo:42043:1,2010-02-02T17:30:00Z,28.9818,-94.9186,2.0,236.9932768,60.43334179,-99999.0,'11111222,11111222,99999999' 
TABS,ioos:station:wmo:42043:1,2010-02-02T18:00:00Z,28.9818,-94.9186,2.0,236.556444,56.64928331,-99999.0,'11111222,11111222,99999999' 
TABS,ioos:station:wmo:42043:1,2010-02-02T18:30:00Z,28.9818,-94.9186,2.0,237.2117367,51.61293055,-99999.0,'11111222,11111222,99999999' 
TABS,ioos:station:wmo:42043:1,2010-02-02T19:00:00Z,28.9818,-94.9186,2.0,235.7544524,52.67125592,-99999.0,'11111222,11111222,99999999' 
TABS,ioos:station:wmo:42043:1,2010-02-02T19:30:00Z,28.9818,-94.9186,2.0,236.0549149,47.42178824,-99999.0,'11111222,11111222,99999999' 
TABS,ioos:station:wmo:42043:1,2010-02-02T20:00:00Z,28.9818,-94.9186,2.0,234.2009125,43.11553432,-99999.0,'11111222,11111222,99999999' 
TABS,ioos:station:wmo:42043:1,2010-02-02T20:30:00Z,28.9818,-94.9186,2.0,235.0943982,39.49521617,-99999.0,'11111222,11111222,99999999' 
TABS,ioos:station:wmo:42043:1,2010-02-02T21:00:00Z,28.9818,-94.9186,2.0,237.3895645,37.96487851,-99999.0,'11111222,11111222,99999999' 
TABS,ioos:station:wmo:42043:1,2010-02-02T21:30:00Z,28.9818,-94.9186,2.0,241.156551,33.4153752,-99999.0,'11111222,11111222,99999999' 
TABS,ioos:station:wmo:42043:1,2010-02-02T22:00:00Z,28.9818,-94.9186,2.0,247.3783094,30.23615386,-99999.0,'11111222,11111222,99999999' 
TABS,ioos:station:wmo:42043:1,2010-02-02T22:30:00Z,28.9818,-94.9186,2.0,244.1681253,30.04179921,-99999.0,'11111222,11111222,99999999' 
TABS,ioos:station:wmo:42043:1,2010-02-02T23:00:00Z,28.9818,-94.9186,2.0,245.9609605,29.01658836,-99999.0,'11111222,11111222,99999999' 
TABS,ioos:station:wmo:42043:1,2010-02-02T23:30:00Z,28.9818,-94.9186,2.0,243.4059613,26.85070763,-99999.0,'11111222,11111222,99999999' 
TABS,ioos:station:wmo:42043:1,2010-02-03T00:00:00Z,28.9818,-94.9186,2.0,248.1136878,30.20709354,-99999.0,'11111222,11111222,99999999' 
TABS,ioos:station:wmo:42043:1,2010-02-03T00:30:00Z,28.9818,-94.9186,2.0,249.268605,31.80959132,-99999.0,'11111222,11111222,99999999' 
TABS,ioos:station:wmo:42043:1,2010-02-03T01:00:00Z,28.9818,-94.9186,2.0,249.3874802,29.88296003,-99999.0,'11111222,11111222,99999999' 
TABS,ioos:station:wmo:42043:1,2010-02-03T01:30:00Z,28.9818,-94.9186,2.0,241.6524903,31.78095342,-99999.0,'11111222,11111222,99999999' 
TABS,ioos:station:wmo:42043:1,2010-02-03T02:00:00Z,28.9818,-94.9186,2.0,241.5246086,30.72722897,-99999.0,'11111222,11111222,99999999' 
TABS,ioos:station:wmo:42043:1,2010-02-03T02:30:00Z,28.9818,-94.9186,2.0,239.9755317,28.7590351,-99999.0,'11111222,11111222,99999999' 
TABS,ioos:station:wmo:42043:1,2010-02-03T03:00:00Z,28.9818,-94.9186,2.0,241.6255666,28.04980036,-99999.0,'11111222,11111222,99999999' 
TABS,ioos:station:wmo:42043:1,2010-02-03T03:30:00Z,28.9818,-94.9186,2.0,247.0087101,28.98214623,-99999.0,'11111222,11111222,99999999' 
TABS,ioos:station:wmo:42043:1,2010-02-03T04:00:00Z,28.9818,-94.9186,2.0,248.3268441,25.64273386,-99999.0,'11111222,11111222,99999999' 
TABS,ioos:station:wmo:42043:1,2010-02-03T04:30:00Z,28.9818,-94.9186,2.0,257.1568551,27.71328201,-99999.0,'11111222,11111222,99999999' 
TABS,ioos:station:wmo:42043:1,2010-02-03T05:00:00Z,28.9818,-94.9186,2.0,259.407826,36.61383618,-99999.0,'11111222,11111222,99999999' 
TABS,ioos:station:wmo:42043:1,2010-02-03T05:30:00Z,28.9818,-94.9186,2.0,255.8954384,40.91336334,-99999.0,'11111222,11111222,99999999' 
TABS,ioos:station:wmo:42043:1,2010-02-03T06:00:00Z,28.9818,-94.9186,2.0,254.1276417,40.73293508,-99999.0,'11111222,11111222,99999999' 
TABS,ioos:station:wmo:42043:1,2010-02-03T06:30:00Z,28.9818,-94.9186,2.0,246.5055234,35.89571701,-99999.0,'11111222,11111222,99999999' 
TABS,ioos:station:wmo:42043:1,2010-02-03T07:00:00Z,28.9818,-94.9186,2.0,248.4617313,31.89722558,-99999.0,'11111222,11111222,99999999' 
TABS,ioos:station:wmo:42043:1,2010-02-03T07:30:00Z,28.9818,-94.9186,2.0,252.1242503,31.73180739,-99999.0,'11111222,11111222,99999999' 
TABS,ioos:station:wmo:42043:1,2010-02-03T08:00:00Z,28.9818,-94.9186,2.0,246.9139357,30.65485932,-99999.0,'11111222,11111222,99999999' 
TABS,ioos:station:wmo:42043:1,2010-02-03T08:30:00Z,28.9818,-94.9186,2.0,246.8770749,27.70568173,-99999.0,'11111222,11111222,99999999' 
TABS,ioos:station:wmo:42043:1,2010-02-03T09:00:00Z,28.9818,-94.9186,2.0,247.8181432,28.55314343,-99999.0,'11111222,11111222,99999999' 
TABS,ioos:station:wmo:42043:1,2010-02-03T09:30:00Z,28.9818,-94.9186,2.0,251.397893,28.24558373,-99999.0,'11111222,11111222,99999999' 
TABS,ioos:station:wmo:42043:1,2010-02-03T10:00:00Z,28.9818,-94.9186,2.0,250.9480446,27.32682382,-99999.0,'11111222,11111222,99999999' 
TABS,ioos:station:wmo:42043:1,2010-02-03T10:30:00Z,28.9818,-94.9186,2.0,256.9796154,27.07608539,-99999.0,'11111222,11111222,99999999' 
TABS,ioos:station:wmo:42043:1,2010-02-03T11:00:00Z,28.9818,-94.9186,2.0,248.0390664,22.72919708,-99999.0,'11111222,11111222,99999999' 
TABS,ioos:station:wmo:42043:1,2010-02-03T11:30:00Z,28.9818,-94.9186,2.0,242.728966,26.14608957,-99999.0,'11111222,11111222,99999999' 
TABS,ioos:station:wmo:42043:1,2010-02-03T12:00:00Z,28.9818,-94.9186,2.0,243.6510372,28.41168246,-99999.0,'11111222,11111222,99999999' 
TABS,ioos:station:wmo:42043:1,2010-02-03T12:30:00Z,28.9818,-94.9186,2.0,240.9136075,30.09529697,-99999.0,'11111222,11111222,99999999' 
TABS,ioos:station:wmo:42043:1,2010-02-03T13:00:00Z,28.9818,-94.9186,2.0,237.2399044,32.28503368,-99999.0,'11111222,11111222,99999999' 
TABS,ioos:station:wmo:42043:1,2010-02-03T13:30:00Z,28.9818,-94.9186,2.0,233.5171391,31.65272342,-99999.0,'11111222,11111222,99999999' 
TABS,ioos:station:wmo:42043:1,2010-02-03T14:00:00Z,28.9818,-94.9186,2.0,238.0456884,48.42814264,-99999.0,'11111222,11111222,99999999' 
TABS,ioos:station:wmo:42043:1,2010-02-03T14:30:00Z,28.9818,-94.9186,2.0,228.8552423,44.16685635,-99999.0,'11111222,11111222,99999999' 
TABS,ioos:station:wmo:42043:1,2010-02-03T15:00:00Z,28.9818,-94.9186,2.0,232.8272287,39.77055443,-99999.0,'11111222,11111222,99999999' 
TABS,ioos:station:wmo:42043:1,2010-02-03T15:30:00Z,28.9818,-94.9186,2.0,236.929423,50.25045771,-99999.0,'11111222,11111222,99999999' 
TABS,ioos:station:wmo:42043:1,2010-02-03T16:00:00Z,28.9818,-94.9186,2.0,241.6656202,45.48988569,-99999.0,'11111222,11111222,99999999' 
TABS,ioos:station:wmo:42043:1,2010-02-03T16:30:00Z,28.9818,-94.9186,2.0,237.9473327,42.69884893,-99999.0,'11111222,11111222,99999999' 
TABS,ioos:station:wmo:42043:1,2010-02-03T17:00:00Z,28.9818,-94.9186,2.0,243.2824276,40.41483515,-99999.0,'11111222,11111222,99999999' 
TABS,ioos:station:wmo:42043:1,2010-02-03T17:30:00Z,28.9818,-94.9186,2.0,238.9498849,45.69756449,-99999.0,'11111222,11111222,99999999' 
TABS,ioos:station:wmo:42043:1,2010-02-03T18:00:00Z,28.9818,-94.9186,2.0,244.9850972,44.12930659,-99999.0,'11111222,11111222,99999999' 
TABS,ioos:station:wmo:42043:1,2010-02-03T18:30:00Z,28.9818,-94.9186,2.0,238.3806763,52.33964559,-99999.0,'11111222,11111222,99999999' 
TABS,ioos:station:wmo:42043:1,2010-02-03T19:00:00Z,28.9818,-94.9186,2.0,236.3670037,55.35633387,-99999.0,'11111222,11111222,99999999' 
TABS,ioos:station:wmo:42043:1,2010-02-03T19:30:00Z,28.9818,-94.9186,2.0,248.1656445,55.52291509,-99999.0,'11111222,11111222,99999999' 
TABS,ioos:station:wmo:42043:1,2010-02-03T20:00:00Z,28.9818,-94.9186,2.0,242.5681813,66.24885207,-99999.0,'11111222,11111222,99999999' 
TABS,ioos:station:wmo:42043:1,2010-02-03T20:30:00Z,28.9818,-94.9186,2.0,249.0321783,57.54008168,-99999.0,'11111222,11111222,99999999' 
TABS,ioos:station:wmo:42043:1,2010-02-03T21:00:00Z,28.9818,-94.9186,2.0,248.1928286,59.19596017,-99999.0,'11111222,11111222,99999999' 
TABS,ioos:station:wmo:42043:1,2010-02-03T21:30:00Z,28.9818,-94.9186,2.0,237.6440497,69.19265423,-99999.0,'11111222,11111222,99999999' 
TABS,ioos:station:wmo:42043:1,2010-02-03T22:00:00Z,28.9818,-94.9186,2.0,240.8762037,70.33183134,-99999.0,'11111222,11111222,99999999' 
TABS,ioos:station:wmo:42043:1,2010-02-03T22:30:00Z,28.9818,-94.9186,2.0,242.3031003,73.60334911,-99999.0,'11111222,11111222,99999999' 
TABS,ioos:station:wmo:42043:1,2010-02-03T23:00:00Z,28.9818,-94.9186,2.0,242.5172185,71.22789482,-99999.0,'11111222,11111222,99999999' 
TABS,ioos:station:wmo:42043:1,2010-02-03T23:30:00Z,28.9818,-94.9186,2.0,242.515042,79.97656282,-99999.0,'11111222,11111222,99999999' 
TABS,ioos:station:wmo:42043:1,2010-02-04T00:00:00Z,28.9818,-94.9186,2.0,237.4639387,76.95808275,-99999.0,'11111222,11111222,99999999' 
TABS,ioos:station:wmo:42043:1,2010-02-04T00:30:00Z,28.9818,-94.9186,2.0,237.7165115,68.00178306,-99999.0,'11111222,11111222,99999999' 
TABS,ioos:station:wmo:42043:1,2010-02-04T01:00:00Z,28.9818,-94.9186,2.0,236.1901917,70.53860362,-99999.0,'11111222,11111222,99999999' 
TABS,ioos:station:wmo:42043:1,2010-02-04T01:30:00Z,28.9818,-94.9186,2.0,235.2609317,66.52801665,-99999.0,'11111222,11111222,99999999' 
TABS,ioos:station:wmo:42043:1,2010-02-04T02:00:00Z,28.9818,-94.9186,2.0,239.5423362,74.11772393,-99999.0,'11111222,11111222,99999999' 
TABS,ioos:station:wmo:42043:1,2010-02-04T02:30:00Z,28.9818,-94.9186,2.0,234.723507,73.34837422,-99999.0,'11111222,11111222,99999999' 
TABS,ioos:station:wmo:42043:1,2010-02-04T03:00:00Z,28.9818,-94.9186,2.0,231.55426,66.77724463,-99999.0,'11111222,11111222,99999999' 
TABS,ioos:station:wmo:42043:1,2010-02-04T03:30:00Z,28.9818,-94.9186,2.0,235.280164,62.52202972,-99999.0,'11111222,11111222,99999999' 
TABS,ioos:station:wmo:42043:1,2010-02-04T04:00:00Z,28.9818,-94.9186,2.0,235.7934651,75.74183784,-99999.0,'11111222,11111222,99999999' 
TABS,ioos:station:wmo:42043:1,2010-02-04T04:30:00Z,28.9818,-94.9186,2.0,231.8487841,71.03375254,-99999.0,'11111222,11111222,99999999' 
TABS,ioos:station:wmo:42043:1,2010-02-04T05:00:00Z,28.9818,-94.9186,2.0,231.4757211,59.9349731,-99999.0,'11111222,11111222,99999999' 
TABS,ioos:station:wmo:42043:1,2010-02-04T05:30:00Z,28.9818,-94.9186,2.0,245.1041698,93.7847285,-99999.0,'11111222,11111222,99999999' 
TABS,ioos:station:wmo:42043:1,2010-02-04T06:00:00Z,28.9818,-94.9186,2.0,242.9899044,102.5670551,-99999.0,'11111222,11111222,99999999' 
TABS,ioos:station:wmo:42043:1,2010-02-04T06:30:00Z,28.9818,-94.9186,2.0,237.1285035,98.77445874,-99999.0,'11111222,11111222,99999999' 
TABS,ioos:station:wmo:42043:1,2010-02-04T07:00:00Z,28.9818,-94.9186,2.0,232.3974913,88.41722117,-99999.0,'11111222,11111222,99999999' 
TABS,ioos:station:wmo:42043:1,2010-02-04T07:30:00Z,28.9818,-94.9186,2.0,230.3240992,80.69673166,-99999.0,'11111222,11111222,99999999' 
TABS,ioos:station:wmo:42043:1,2010-02-04T08:00:00Z,28.9818,-94.9186,2.0,235.2425307,78.93365885,-99999.0,'11111222,11111222,99999999' 
TABS,ioos:station:wmo:42043:1,2010-02-04T08:30:00Z,28.9818,-94.9186,2.0,234.2088075,68.92622288,-99999.0,'11111222,11111222,99999999' 
TABS,ioos:station:wmo:42043:1,2010-02-04T09:00:00Z,28.9818,-94.9186,2.0,235.4592726,62.04727633,-99999.0,'11111222,11111222,99999999' 
TABS,ioos:station:wmo:42043:1,2010-02-04T09:30:00Z,28.9818,-94.9186,2.0,234.4260569,61.17765687,-99999.0,'11111222,11111222,99999999' 
TABS,ioos:station:wmo:42043:1,2010-02-04T10:00:00Z,28.9818,-94.9186,2.0,238.1408557,69.60604859,-99999.0,'11111222,11111222,99999999' 
TABS,ioos:station:wmo:42043:1,2010-02-04T10:30:00Z,28.9818,-94.9186,2.0,243.2937388,74.58650883,-99999.0,'11111222,11111222,99999999' 
TABS,ioos:station:wmo:42043:1,2010-02-04T11:00:00Z,28.9818,-94.9186,2.0,245.9351348,71.85514665,-99999.0,'11111222,11111222,99999999' 
TABS,ioos:station:wmo:42043:1,2010-02-04T11:30:00Z,28.9818,-94.9186,2.0,243.375895,82.94474908,-99999.0,'11111222,11111222,99999999' 
TABS,ioos:station:wmo:42043:1,2010-02-04T12:00:00Z,28.9818,-94.9186,2.0,250.1563873,78.74552559,-99999.0,'11111222,11111222,99999999' 
TABS,ioos:station:wmo:42043:1,2010-02-04T12:30:00Z,28.9818,-94.9186,2.0,249.0458087,69.79565889,-99999.0,'11111222,11111222,99999999' 
TABS,ioos:station:wmo:42043:1,2010-02-04T13:00:00Z,28.9818,-94.9186,2.0,243.7611028,64.35060917,-99999.0,'11111222,11111222,99999999' 
TABS,ioos:station:wmo:42043:1,2010-02-04T13:30:00Z,28.9818,-94.9186,2.0,243.4591923,83.32037266,-99999.0,'11111222,11111222,99999999' 
TABS,ioos:station:wmo:42043:1,2010-02-04T14:00:00Z,28.9818,-94.9186,2.0,246.3497494,91.18858097,-99999.0,'11111222,11111222,99999999' 
TABS,ioos:station:wmo:42043:1,2010-02-04T14:30:00Z,28.9818,-94.9186,2.0,241.0441461,87.60040297,-99999.0,'11111222,11111222,99999999' 
TABS,ioos:station:wmo:42043:1,2010-02-04T15:00:00Z,28.9818,-94.9186,2.0,246.4153862,85.05435556,-99999.0,'11111222,11111222,99999999' 
TABS,ioos:station:wmo:42043:1,2010-02-04T15:30:00Z,28.9818,-94.9186,2.0,240.7717772,98.28292324,-99999.0,'11111222,11111222,99999999' 
TABS,ioos:station:wmo:42043:1,2010-02-04T16:00:00Z,28.9818,-94.9186,2.0,236.4602411,105.4821539,-99999.0,'11111222,11111222,99999999' 